Location: Azul
(36.7830°S, 59.8500°W)
Time: 23:38:44
(UTC-03:00)

XW-2F - Pass Details

Date: 25 October 2021
Orbit: 497 x 515 km, 97.5° (Epoch: 27 November)

Event Time Altitude Azimuth Distance (km) Brightness Sun altitude
Rises 19:58:24 0° 185° (S) 2,670 ? -7.0°
Reaches altitude 10° 20:00:54 10° 201° (SSW) 1,770 ? -7.5°
Maximum altitude 20:03:46 21° 250° (WSW) 1,223 ? -8.0°
Drops below altitude 10° 20:06:36 10° 299° (WNW) 1,743 ? -8.6°
Sets 20:09:03 0° 315° (NW) 2,616 ? -9.0°
